Hourly Data Report for July 09, 2021

TORONTO CITY CENTRE
ONTARIO
Current Station Operator: NAVCAN

43°37'39.000" N
79°23'46.000" W
76.80 m
6158359
71265
YTZ

Download Data

Hourly Data (July 2021)
Hourly Data Report for July 9, 2021
TIME
LST
Temp Definition
°C
Dew Point Definition
°C
Rel Hum Definition
%
Precip. Amount Definition
mm

Wind Dir Definition
10's deg

Wind Spd Definition
km/h
Visibility Definition
km
Stn Press Definition
kPa
Hmdx Definition


Wind Chill Definition


Weather Definition


00:00 18.5 18.5 100 0.0 6 8 2.4 100.17     Fog
01:00 18.7 18.6 99 0.0 4 5 4.8 100.13     Fog
02:00 18.8 18.7 100 0.2   0 4.8 100.12     Fog
03:00 18.7 18.5 99 0.0   0 3.2 100.10     Fog
04:00 18.8 18.6 99 0.0 25 5 3.2 100.13     Fog
05:00 18.5 18.5 100 0.0 8 5 2.0 100.17     Fog
06:00 18.4 18.4 100 0.2 9 9 4.8 100.20     Rain, Fog
07:00 18.3 18.1 99 0.5 LegendMM 4 3.2 100.23     Rain, Fog
08:00 18.7 17.7 94 0.5 35 8 14.5 100.27     Rain
09:00 19.9 17.5 86 0.0 1 8 16.1 100.30     LegendNANA
10:00 19.6 18.3 92 0.0 17 8 16.1 100.34     LegendNANA
11:00 19.3 18.3 94 1.0 34 11 16.1 100.35     Rain
12:00 20.0 17.4 85 0.0 3 13 16.1 100.35 26   LegendNANA
13:00 18.8 18.0 95 0.0 14 8 16.1 100.40     LegendNANA
14:00 18.9 17.9 94 0.0 15 5 16.1 100.41     LegendNANA
15:00 18.6 17.6 94 0.0 9 8 16.1 100.41     LegendNANA
16:00 19.2 16.1 82 0.0 32 17 16.1 100.45     LegendNANA
17:00 19.2 16.0 82 0.0 32 17 16.1 100.48     LegendNANA
18:00 18.5 15.6 83 0.0 32 18 16.1 100.54     LegendNANA
19:00 18.3 15.6 84 0.0 33 13 16.1 100.58     LegendNANA
20:00 18.5 15.6 83 0.0 LegendMM 4 16.1 100.66     LegendNANA
21:00 18.2 15.3 83 0.0 33 13 16.1 100.75     LegendNANA
22:00 18.3 15.0 81 0.0 33 8 16.1 100.78     LegendNANA
23:00 18.1 14.8 81 0.0 33 9 16.1 100.80     LegendNANA

Notes on Data Quality.

Legend

  • E = Estimated
  • M = Missing
  • NA = Not Available*
  • [empty] = Indicates an unobserved value
Date modified: